![]() |
EMODnet Physics ERDDAP
Easier access to scientific data |
log in|
Brought to you by EMODnet Physics |
| Dataset Title: | NDBC - Collection of dew point temperature (DEWT) TimeSeries - IN SITU MultiPointTimeSeriesObservation
|
| Institution: | NDBC (Dataset ID: TS_DEWT_NDBC) |
| Information: | Summary
| License
| FGDC
| ISO 19115
| Metadata
| Background
| Subset
| Data Access Form
| Make a graph
|
| Name | Last modified | Size | Description | |
|---|---|---|---|---|
| Parent Directory | - | - | ||
| GDMM5_TS_DEWT_012005.nc | 29-Nov-2024 23:35 | 3144541 | ||
| GDMM5_TS_DEWT_012006.nc | 30-Nov-2024 00:30 | 4806189 | ||
| GDMM5_TS_DEWT_012008.nc | 30-Nov-2024 02:02 | 632035 | ||
| GDMM5_TS_DEWT_012009.nc | 30-Nov-2024 02:55 | 1669491 | ||
| GDMM5_TS_DEWT_012010.nc | 30-Nov-2024 03:45 | 1676468 | ||
| GDMM5_TS_DEWT_012011.nc | 30-Nov-2024 04:41 | 1674689 | ||
| GDMM5_TS_DEWT_012012.nc | 30-Nov-2024 05:38 | 1835053 | ||
| GDMM5_TS_DEWT_012013.nc | 30-Nov-2024 06:38 | 1840722 | ||
| GDMM5_TS_DEWT_012014.nc | 30-Nov-2024 07:31 | 1314099 | ||
| GDMM5_TS_DEWT_012015.nc | 30-Nov-2024 08:35 | 1834076 | ||
| GDMM5_TS_DEWT_012016.nc | 30-Nov-2024 09:46 | 1837659 | ||
| GDMM5_TS_DEWT_012017.nc | 30-Nov-2024 10:53 | 4401320 | ||
| GDMM5_TS_DEWT_012018.nc | 30-Nov-2024 11:59 | 3092452 | ||
| GDMM5_TS_DEWT_012019.nc | 30-Nov-2024 12:52 | 1662900 | ||
| GDMM5_TS_DEWT_012020.nc | 30-Nov-2024 13:48 | 1667357 | ||
| GDMM5_TS_DEWT_012021.nc | 30-Nov-2024 14:41 | 1669839 | ||
| GDMM5_TS_DEWT_012022.nc | 30-Nov-2024 15:37 | 1648530 | ||
| GDMM5_TS_DEWT_012023.nc | 30-Nov-2024 16:41 | 1679264 | ||
| GDMM5_TS_DEWT_012025.nc | 07-Feb-2025 11:51 | 1678502 | ||
| GDMM5_TS_DEWT_022005.nc | 29-Nov-2024 23:40 | 1678779 | ||
| GDMM5_TS_DEWT_022006.nc | 30-Nov-2024 00:34 | 1680806 | ||
| GDMM5_TS_DEWT_022007.nc | 30-Nov-2024 01:05 | 1680127 | ||
| GDMM5_TS_DEWT_022008.nc | 30-Nov-2024 02:07 | 4870073 | ||
| GDMM5_TS_DEWT_022009.nc | 30-Nov-2024 03:00 | 1677441 | ||
| GDMM5_TS_DEWT_022010.nc | 30-Nov-2024 03:49 | 1789731 | ||
| GDMM5_TS_DEWT_022011.nc | 30-Nov-2024 04:46 | 1665933 | ||
| GDMM5_TS_DEWT_022012.nc | 30-Nov-2024 05:43 | 1830681 | ||
| GDMM5_TS_DEWT_022013.nc | 30-Nov-2024 06:42 | 1828549 | ||
| GDMM5_TS_DEWT_022014.nc | 30-Nov-2024 07:36 | 1840023 | ||
| GDMM5_TS_DEWT_022015.nc | 30-Nov-2024 08:40 | 1828301 | ||
| GDMM5_TS_DEWT_022016.nc | 30-Nov-2024 09:51 | 1283843 | ||
| GDMM5_TS_DEWT_022017.nc | 30-Nov-2024 10:58 | 1831220 | ||
| GDMM5_TS_DEWT_022018.nc | 30-Nov-2024 12:04 | 5498685 | ||
| GDMM5_TS_DEWT_022019.nc | 30-Nov-2024 12:57 | 1668508 | ||
| GDMM5_TS_DEWT_022020.nc | 30-Nov-2024 13:53 | 1627317 | ||
| GDMM5_TS_DEWT_022021.nc | 30-Nov-2024 14:45 | 1672784 | ||
| GDMM5_TS_DEWT_022022.nc | 30-Nov-2024 15:43 | 1642642 | ||
| GDMM5_TS_DEWT_022023.nc | 30-Nov-2024 16:46 | 1672750 | ||
| GDMM5_TS_DEWT_022025.nc | 01-Mar-2025 06:16 | 1675745 | ||
| GDMM5_TS_DEWT_032005.nc | 29-Nov-2024 23:45 | 1678420 | ||
| GDMM5_TS_DEWT_032006.nc | 30-Nov-2024 00:40 | 1671716 | ||
| GDMM5_TS_DEWT_032007.nc | 30-Nov-2024 01:10 | 1674624 | ||
| GDMM5_TS_DEWT_032008.nc | 30-Nov-2024 02:12 | 2779179 | ||
| GDMM5_TS_DEWT_032009.nc | 30-Nov-2024 03:04 | 1674783 | ||
| GDMM5_TS_DEWT_032010.nc | 30-Nov-2024 03:53 | 1792210 | ||
| GDMM5_TS_DEWT_032011.nc | 30-Nov-2024 04:51 | 1672989 | ||
| GDMM5_TS_DEWT_032012.nc | 30-Nov-2024 05:49 | 1830834 | ||
| GDMM5_TS_DEWT_032013.nc | 30-Nov-2024 06:47 | 1828749 | ||
| GDMM5_TS_DEWT_032014.nc | 30-Nov-2024 07:41 | 1803853 | ||
| GDMM5_TS_DEWT_032015.nc | 30-Nov-2024 08:45 | 1830684 | ||
| GDMM5_TS_DEWT_032016.nc | 30-Nov-2024 09:57 | 1836765 | ||
| GDMM5_TS_DEWT_032017.nc | 30-Nov-2024 11:03 | 1762190 | ||
| GDMM5_TS_DEWT_032018.nc | 30-Nov-2024 12:09 | 1304632 | ||
| GDMM5_TS_DEWT_032019.nc | 30-Nov-2024 13:02 | 1832673 | ||
| GDMM5_TS_DEWT_032020.nc | 30-Nov-2024 13:58 | 1821392 | ||
| GDMM5_TS_DEWT_032021.nc | 30-Nov-2024 14:50 | 1680267 | ||
| GDMM5_TS_DEWT_032022.nc | 30-Nov-2024 15:48 | 1680625 | ||
| GDMM5_TS_DEWT_032023.nc | 30-Nov-2024 16:52 | 1830851 | ||
| GDMM5_TS_DEWT_032025.nc | 02-Apr-2025 05:01 | 1825049 | ||
| GDMM5_TS_DEWT_042005.nc | 29-Nov-2024 23:50 | 1793061 | ||
| GDMM5_TS_DEWT_042006.nc | 30-Nov-2024 00:45 | 1838678 | ||
| GDMM5_TS_DEWT_042007.nc | 30-Nov-2024 01:16 | 1627549 | ||
| GDMM5_TS_DEWT_042008.nc | 30-Nov-2024 02:16 | 3775923 | ||
| GDMM5_TS_DEWT_042009.nc | 30-Nov-2024 03:09 | 1675257 | ||
| GDMM5_TS_DEWT_042010.nc | 30-Nov-2024 03:58 | 1668445 | ||
| GDMM5_TS_DEWT_042011.nc | 30-Nov-2024 04:56 | 1664749 | ||
| GDMM5_TS_DEWT_042012.nc | 30-Nov-2024 05:55 | 1673533 | ||
| GDMM5_TS_DEWT_042013.nc | 30-Nov-2024 06:53 | 1671051 | ||
| GDMM5_TS_DEWT_042014.nc | 30-Nov-2024 07:46 | 1672426 | ||
| GDMM5_TS_DEWT_042015.nc | 30-Nov-2024 08:50 | 1624215 | ||
| GDMM5_TS_DEWT_042016.nc | 30-Nov-2024 10:03 | 1679000 | ||
| GDMM5_TS_DEWT_042017.nc | 30-Nov-2024 11:08 | 1477842 | ||
| GDMM5_TS_DEWT_042018.nc | 30-Nov-2024 12:13 | 5034251 | ||
| GDMM5_TS_DEWT_042019.nc | 30-Nov-2024 13:07 | 1824223 | ||
| GDMM5_TS_DEWT_042020.nc | 30-Nov-2024 14:02 | 1669736 | ||
| GDMM5_TS_DEWT_042021.nc | 30-Nov-2024 14:54 | 1670976 | ||
| GDMM5_TS_DEWT_042022.nc | 30-Nov-2024 15:54 | 1673178 | ||
| GDMM5_TS_DEWT_042023.nc | 30-Nov-2024 16:57 | 1827671 | ||
| GDMM5_TS_DEWT_042025.nc | 01-May-2025 05:20 | 1820169 | ||
| GDMM5_TS_DEWT_052005.nc | 29-Nov-2024 23:55 | 1834569 | ||
| GDMM5_TS_DEWT_052006.nc | 30-Nov-2024 00:50 | 1749372 | ||
| GDMM5_TS_DEWT_052007.nc | 30-Nov-2024 01:22 | 1627896 | ||
| GDMM5_TS_DEWT_052008.nc | 30-Nov-2024 02:20 | 4982400 | ||
| GDMM5_TS_DEWT_052009.nc | 30-Nov-2024 03:14 | 5257972 | ||
| GDMM5_TS_DEWT_052010.nc | 30-Nov-2024 04:03 | 1670126 | ||
| GDMM5_TS_DEWT_052011.nc | 30-Nov-2024 05:02 | 1653887 | ||
| GDMM5_TS_DEWT_052012.nc | 30-Nov-2024 05:59 | 1664623 | ||
| GDMM5_TS_DEWT_052013.nc | 30-Nov-2024 06:57 | 1647710 | ||
| GDMM5_TS_DEWT_052014.nc | 30-Nov-2024 07:51 | 1671947 | ||
| GDMM5_TS_DEWT_052015.nc | 30-Nov-2024 08:56 | 1658986 | ||
| GDMM5_TS_DEWT_052016.nc | 30-Nov-2024 10:08 | 1007454 | ||
| GDMM5_TS_DEWT_052017.nc | 30-Nov-2024 11:14 | 1682482 | ||
| GDMM5_TS_DEWT_052018.nc | 30-Nov-2024 12:18 | 1561419 | ||
| GDMM5_TS_DEWT_052019.nc | 30-Nov-2024 13:11 | 4148325 | ||
| GDMM5_TS_DEWT_052020.nc | 30-Nov-2024 14:07 | 5901818 | ||
| GDMM5_TS_DEWT_052021.nc | 30-Nov-2024 14:59 | 1678912 | ||
| GDMM5_TS_DEWT_052022.nc | 30-Nov-2024 15:58 | 1834672 | ||
| GDMM5_TS_DEWT_052023.nc | 30-Nov-2024 17:02 | 1670136 | ||
| GDMM5_TS_DEWT_052025.nc | 01-Jun-2025 05:18 | 1671199 | ||
| GDMM5_TS_DEWT_062005.nc | 30-Nov-2024 00:00 | 1829367 | ||
| GDMM5_TS_DEWT_062006.nc | 30-Nov-2024 00:55 | 1834493 | ||
| GDMM5_TS_DEWT_062007.nc | 30-Nov-2024 01:28 | 660686 | ||
| GDMM5_TS_DEWT_062008.nc | 30-Nov-2024 02:24 | 1674085 | ||
| GDMM5_TS_DEWT_062009.nc | 30-Nov-2024 03:18 | 1315542 | ||
| GDMM5_TS_DEWT_062010.nc | 30-Nov-2024 04:08 | 5301651 | ||
| GDMM5_TS_DEWT_062011.nc | 30-Nov-2024 05:06 | 1469991 | ||
| GDMM5_TS_DEWT_062012.nc | 30-Nov-2024 06:04 | 1144304 | ||
| GDMM5_TS_DEWT_062013.nc | 30-Nov-2024 07:02 | 1625196 | ||
| GDMM5_TS_DEWT_062014.nc | 30-Nov-2024 07:58 | 1625655 | ||
| GDMM5_TS_DEWT_062015.nc | 30-Nov-2024 09:02 | 1626865 | ||
| GDMM5_TS_DEWT_062016.nc | 30-Nov-2024 10:13 | 1626178 | ||
| GDMM5_TS_DEWT_062017.nc | 30-Nov-2024 11:21 | 1626582 | ||
| GDMM5_TS_DEWT_062018.nc | 30-Nov-2024 12:23 | 1626734 | ||
| GDMM5_TS_DEWT_062019.nc | 30-Nov-2024 13:16 | 1626649 | ||
| GDMM5_TS_DEWT_062020.nc | 30-Nov-2024 14:10 | 1626643 | ||
| GDMM5_TS_DEWT_062021.nc | 30-Nov-2024 15:04 | 1626760 | ||
| GDMM5_TS_DEWT_062022.nc | 30-Nov-2024 16:03 | 1626901 | ||
| GDMM5_TS_DEWT_062023.nc | 30-Nov-2024 17:07 | 1626889 | ||
| GDMM5_TS_DEWT_062025.nc | 17-Jun-2025 04:29 | 1626626 | ||
| GDMM5_TS_DEWT_072005.nc | 30-Nov-2024 00:05 | 1625060 | ||
| GDMM5_TS_DEWT_072006.nc | 30-Nov-2024 01:00 | 1473086 | ||
| GDMM5_TS_DEWT_072007.nc | 30-Nov-2024 01:33 | 1464210 | ||
| GDMM5_TS_DEWT_072008.nc | 30-Nov-2024 02:29 | 1627001 | ||
| GDMM5_TS_DEWT_072009.nc | 30-Nov-2024 03:21 | 1626968 | ||
| GDMM5_TS_DEWT_072010.nc | 30-Nov-2024 04:13 | 1466938 | ||
| GDMM5_TS_DEWT_072011.nc | 30-Nov-2024 05:10 | 1157921 | ||
| GDMM5_TS_DEWT_072012.nc | 30-Nov-2024 06:08 | 1465003 | ||
| GDMM5_TS_DEWT_072013.nc | 30-Nov-2024 07:08 | 1473205 | ||
| GDMM5_TS_DEWT_072014.nc | 30-Nov-2024 08:03 | 1469966 | ||
| GDMM5_TS_DEWT_072015.nc | 30-Nov-2024 09:08 | 1469407 | ||
| GDMM5_TS_DEWT_072016.nc | 30-Nov-2024 10:19 | 1469457 | ||
| GDMM5_TS_DEWT_072017.nc | 30-Nov-2024 11:26 | 1472817 | ||
| GDMM5_TS_DEWT_072018.nc | 30-Nov-2024 12:28 | 1470015 | ||
| GDMM5_TS_DEWT_072019.nc | 30-Nov-2024 13:21 | 1469802 | ||
| GDMM5_TS_DEWT_072020.nc | 30-Nov-2024 14:14 | 1470018 | ||
| GDMM5_TS_DEWT_072021.nc | 30-Nov-2024 15:09 | 1473515 | ||
| GDMM5_TS_DEWT_072022.nc | 30-Nov-2024 16:08 | 1469612 | ||
| GDMM5_TS_DEWT_072023.nc | 30-Nov-2024 17:10 | 1470021 | ||
| GDMM5_TS_DEWT_072025.nc | 16-Aug-2025 07:31 | 1469478 | ||
| GDMM5_TS_DEWT_082005.nc | 30-Nov-2024 00:10 | 1465928 | ||
| GDMM5_TS_DEWT_082007.nc | 30-Nov-2024 01:38 | 1149711 | ||
| GDMM5_TS_DEWT_082008.nc | 30-Nov-2024 02:34 | 1469907 | ||
| GDMM5_TS_DEWT_082009.nc | 30-Nov-2024 03:25 | 1469421 | ||
| GDMM5_TS_DEWT_082010.nc | 30-Nov-2024 04:17 | 1472421 | ||
| GDMM5_TS_DEWT_082011.nc | 30-Nov-2024 05:13 | 1625675 | ||
| GDMM5_TS_DEWT_082012.nc | 30-Nov-2024 06:13 | 1468915 | ||
| GDMM5_TS_DEWT_082013.nc | 30-Nov-2024 07:12 | 1477624 | ||
| GDMM5_TS_DEWT_082014.nc | 30-Nov-2024 08:08 | 1626916 | ||
| GDMM5_TS_DEWT_082015.nc | 30-Nov-2024 09:14 | 1624843 | ||
| GDMM5_TS_DEWT_082016.nc | 30-Nov-2024 10:24 | 1476924 | ||
| GDMM5_TS_DEWT_082017.nc | 30-Nov-2024 11:31 | 1627002 | ||
| GDMM5_TS_DEWT_082018.nc | 30-Nov-2024 12:33 | 1626949 | ||
| GDMM5_TS_DEWT_082019.nc | 30-Nov-2024 13:27 | 1626470 | ||
| GDMM5_TS_DEWT_082020.nc | 30-Nov-2024 14:19 | 1625602 | ||
| GDMM5_TS_DEWT_082021.nc | 30-Nov-2024 15:15 | 1625505 | ||
| GDMM5_TS_DEWT_082022.nc | 30-Nov-2024 16:14 | 1626788 | ||
| GDMM5_TS_DEWT_082023.nc | 30-Nov-2024 17:14 | 1626946 | ||
| GDMM5_TS_DEWT_092007.nc | 30-Nov-2024 01:43 | 1624591 | ||
| GDMM5_TS_DEWT_092008.nc | 30-Nov-2024 02:38 | 1626094 | ||
| GDMM5_TS_DEWT_092009.nc | 30-Nov-2024 03:28 | 1159257 | ||
| GDMM5_TS_DEWT_092010.nc | 30-Nov-2024 04:22 | 1626665 | ||
| GDMM5_TS_DEWT_092011.nc | 30-Nov-2024 05:18 | 1626884 | ||
| GDMM5_TS_DEWT_092012.nc | 30-Nov-2024 06:18 | 1475479 | ||
| GDMM5_TS_DEWT_092013.nc | 30-Nov-2024 07:16 | 1474553 | ||
| GDMM5_TS_DEWT_092014.nc | 30-Nov-2024 08:13 | 1467728 | ||
| GDMM5_TS_DEWT_092015.nc | 30-Nov-2024 09:19 | 1476873 | ||
| GDMM5_TS_DEWT_092016.nc | 30-Nov-2024 10:29 | 1473283 | ||
| GDMM5_TS_DEWT_092017.nc | 30-Nov-2024 11:36 | 1476842 | ||
| GDMM5_TS_DEWT_092018.nc | 30-Nov-2024 12:36 | 1468062 | ||
| GDMM5_TS_DEWT_092019.nc | 30-Nov-2024 13:31 | 1477137 | ||
| GDMM5_TS_DEWT_092020.nc | 30-Nov-2024 14:24 | 1477072 | ||
| GDMM5_TS_DEWT_092021.nc | 30-Nov-2024 15:20 | 1477119 | ||
| GDMM5_TS_DEWT_092022.nc | 30-Nov-2024 16:19 | 1476703 | ||
| GDMM5_TS_DEWT_092023.nc | 30-Nov-2024 17:19 | 1476197 | ||
| GDMM5_TS_DEWT_102004.nc | 29-Nov-2024 23:20 | 1476326 | ||
| GDMM5_TS_DEWT_102005.nc | 30-Nov-2024 00:15 | 1476935 | ||
| GDMM5_TS_DEWT_102007.nc | 30-Nov-2024 01:48 | 1473466 | ||
| GDMM5_TS_DEWT_102008.nc | 30-Nov-2024 02:43 | 1476812 | ||
| GDMM5_TS_DEWT_102009.nc | 30-Nov-2024 03:31 | 1476967 | ||
| GDMM5_TS_DEWT_102010.nc | 30-Nov-2024 04:27 | 1477095 | ||
| GDMM5_TS_DEWT_102011.nc | 30-Nov-2024 05:23 | 1149801 | ||
| GDMM5_TS_DEWT_102012.nc | 30-Nov-2024 06:24 | 1624763 | ||
| GDMM5_TS_DEWT_102013.nc | 30-Nov-2024 07:18 | 1626582 | ||
| GDMM5_TS_DEWT_102014.nc | 30-Nov-2024 08:19 | 1626004 | ||
| GDMM5_TS_DEWT_102015.nc | 30-Nov-2024 09:26 | 1477582 | ||
| GDMM5_TS_DEWT_102016.nc | 30-Nov-2024 10:35 | 1626907 | ||
| GDMM5_TS_DEWT_102017.nc | 30-Nov-2024 11:42 | 1626364 | ||
| GDMM5_TS_DEWT_102018.nc | 30-Nov-2024 12:40 | 915670 | ||
| GDMM5_TS_DEWT_102019.nc | 30-Nov-2024 13:35 | 1625886 | ||
| GDMM5_TS_DEWT_102020.nc | 30-Nov-2024 14:27 | 1626407 | ||
| GDMM5_TS_DEWT_102021.nc | 30-Nov-2024 15:24 | 1626910 | ||
| GDMM5_TS_DEWT_102022.nc | 30-Nov-2024 16:26 | 1626848 | ||
| GDMM5_TS_DEWT_102023.nc | 30-Nov-2024 17:24 | 1626886 | ||
| GDMM5_TS_DEWT_112004.nc | 29-Nov-2024 23:26 | 1626468 | ||
| GDMM5_TS_DEWT_112005.nc | 30-Nov-2024 00:20 | 1626639 | ||
| GDMM5_TS_DEWT_112007.nc | 30-Nov-2024 01:52 | 1625824 | ||
| GDMM5_TS_DEWT_112008.nc | 30-Nov-2024 02:48 | 1626771 | ||
| GDMM5_TS_DEWT_112009.nc | 30-Nov-2024 03:35 | 1624471 | ||
| GDMM5_TS_DEWT_112010.nc | 30-Nov-2024 04:32 | 1626720 | ||
| GDMM5_TS_DEWT_112011.nc | 30-Nov-2024 05:28 | 1149483 | ||
| GDMM5_TS_DEWT_112012.nc | 30-Nov-2024 06:29 | 1469973 | ||
| GDMM5_TS_DEWT_112013.nc | 30-Nov-2024 07:21 | 1476069 | ||
| GDMM5_TS_DEWT_112014.nc | 30-Nov-2024 08:24 | 1469309 | ||
| GDMM5_TS_DEWT_112015.nc | 30-Nov-2024 09:33 | 1473776 | ||
| GDMM5_TS_DEWT_112016.nc | 30-Nov-2024 10:40 | 1477085 | ||
| GDMM5_TS_DEWT_112017.nc | 30-Nov-2024 11:47 | 1476910 | ||
| GDMM5_TS_DEWT_112018.nc | 30-Nov-2024 12:44 | 996099 | ||
| GDMM5_TS_DEWT_112019.nc | 30-Nov-2024 13:39 | 1475308 | ||
| GDMM5_TS_DEWT_112020.nc | 30-Nov-2024 14:31 | 1476106 | ||
| GDMM5_TS_DEWT_112021.nc | 30-Nov-2024 15:28 | 1477042 | ||
| GDMM5_TS_DEWT_112022.nc | 30-Nov-2024 16:32 | 1476892 | ||
| GDMM5_TS_DEWT_112023.nc | 30-Nov-2024 17:29 | 1476862 | ||
| GDMM5_TS_DEWT_112024.nc | 17-Jan-2025 18:25 | 1476138 | ||
| GDMM5_TS_DEWT_122004.nc | 29-Nov-2024 23:31 | 1477144 | ||
| GDMM5_TS_DEWT_122005.nc | 30-Nov-2024 00:25 | 1465267 | ||
| GDMM5_TS_DEWT_122007.nc | 30-Nov-2024 01:57 | 1476562 | ||
| GDMM5_TS_DEWT_122008.nc | 30-Nov-2024 02:51 | 1476500 | ||
| GDMM5_TS_DEWT_122009.nc | 30-Nov-2024 03:40 | 1466564 | ||
| GDMM5_TS_DEWT_122010.nc | 30-Nov-2024 04:37 | 1476161 | ||
| GDMM5_TS_DEWT_122011.nc | 30-Nov-2024 05:33 | 1473554 | ||
| GDMM5_TS_DEWT_122012.nc | 30-Nov-2024 06:34 | 1626599 | ||
| GDMM5_TS_DEWT_122013.nc | 30-Nov-2024 07:25 | 1471537 | ||
| GDMM5_TS_DEWT_122014.nc | 30-Nov-2024 08:30 | 1626911 | ||
| GDMM5_TS_DEWT_122015.nc | 30-Nov-2024 09:40 | 1626086 | ||
| GDMM5_TS_DEWT_122016.nc | 30-Nov-2024 10:47 | 1626945 | ||
| GDMM5_TS_DEWT_122017.nc | 30-Nov-2024 11:53 | 1626968 | ||
| GDMM5_TS_DEWT_122018.nc | 30-Nov-2024 12:48 | 1626387 | ||
| GDMM5_TS_DEWT_122019.nc | 30-Nov-2024 13:44 | 994127 | ||
| GDMM5_TS_DEWT_122020.nc | 30-Nov-2024 14:36 | 1626732 | ||
| GDMM5_TS_DEWT_122021.nc | 30-Nov-2024 15:32 | 1626026 | ||
| GDMM5_TS_DEWT_122022.nc | 30-Nov-2024 16:37 | 1626380 | ||
| GDMM5_TS_DEWT_122023.nc | 30-Nov-2024 17:35 | 1625312 | ||
| GDMM5_TS_DEWT_122024.nc | 22-Jan-2025 18:45 | 1625898 | ||